FW2584 Weather Reports


Display with metric or nautical units.
time (UTC)temp
F
wind
direction
speed
MPH
gust
MPH
rain 1hr
in
rain 24hr
in
rain mn
in
humidity
%
barometer
mb
20260508183527 72 0 0.0 1.0 0.00 0.00 0.00 45 1015.7
20260508183040 71 0 0.0 5.0 0.00 0.00 0.00 46 1015.7
20260508182523 71 0 0.0 5.0 0.00 0.00 0.00 44 1015.8
20260508182022 71 250 1.0 5.0 0.00 0.00 0.00 43 1015.9
20260508181549 71 0 0.0 2.0 0.00 0.00 0.00 45 1016.0
20260508181023 71 0 0.0 2.0 0.00 0.00 0.00 49 1016.1
20260508180520 72 240 0.0 3.0 0.00 0.00 0.00 44 1016.2
20260508180041 72 0 0.0 3.0 0.00 0.00 0.00 47 1016.4
20260508175522 71 0 0.0 3.0 0.00 0.00 0.00 42 1016.6
20260508175020 71 0 0.0 3.0 0.00 0.00 0.00 48 1016.5
20260508174537 71 0 0.0 5.0 0.00 0.00 0.00 47 1016.4
20260508174020 70 0 0.0 5.0 0.00 0.00 0.00 47 1016.4
20260508173521 70 85 0.0 4.0 0.00 0.00 0.00 45 1016.5
20260508173035 71 0 0.0 4.0 0.00 0.00 0.00 48 1016.7
20260508172522 70 0 0.0 3.0 0.00 0.00 0.00 47 1016.9
20260508172027 70 0 0.0 2.0 0.00 0.00 0.00 46 1016.9
20260508171541 70 0 0.0 2.0 0.00 0.00 0.00 49 1017.0
20260508171022 70 0 0.0 3.0 0.00 0.00 0.00 48 1017.0
20260508170521 69 0 0.0 4.0 0.00 0.00 0.00 52 1017.0
20260508170042 69 261 0.0 4.0 0.00 0.00 0.00 46 1017.1
20260508165522 70 0 0.0 4.0 0.00 0.05 0.00 49 1017.4
20260508165022 69 0 0.0 5.0 0.00 0.05 0.00 49 1017.3
20260508164540 69 0 0.0 5.0 0.00 0.05 0.00 49 1017.2
20260508164025 69 0 0.0 4.0 0.00 0.05 0.00 47 1017.4
20260508163521 69 0 0.0 4.0 0.00 0.05 0.00 51 1017.4
20260508163038 69 0 0.0 3.0 0.00 0.05 0.00 50 1017.6
20260508162522 68 0 0.0 2.0 0.00 0.05 0.00 52 1017.6
20260508162022 68 0 0.0 6.0 0.00 0.05 0.00 55 1017.8
20260508161533 69 0 0.0 6.0 0.00 0.05 0.00 59 1017.8
20260508161023 68 0 0.0 4.0 0.00 0.05 0.00 54 1017.9
20260508160522 69 16 0.0 1.0 0.00 0.05 0.00 51 1017.9
20260508160057 68 0 0.0 6.0 0.00 0.05 0.00 55 1017.9
20260508155524 68 0 1.0 6.0 0.00 0.48 0.00 58 1017.9
20260508155022 68 0 0.0 5.0 0.00 0.48 0.00 57 1017.9
20260508154538 67 0 0.0 5.0 0.00 0.48 0.00 56 1017.8
20260508154025 67 0 0.0 5.0 0.00 0.48 0.00 58 1017.9
20260508153525 66 0 0.0 5.0 0.00 0.48 0.00 57 1017.8
20260508153045 66 0 1.0 5.0 0.00 0.48 0.00 59 1017.8
20260508152525 67 350 0.0 7.0 0.00 0.48 0.00 62 1017.7
20260508152023 67 0 0.0 7.0 0.00 0.48 0.00 64 1017.8
20260508151533 66 0 0.0 1.0 0.00 0.48 0.00 70 1017.9
20260508151023 66 0 0.0 1.0 0.00 0.48 0.00 69 1017.9
20260508150522 65 0 0.0 4.0 0.00 0.48 0.00 71 1018.0
20260508150037 65 0 0.0 4.0 0.00 0.48 0.00 70 1018.1
20260508145522 64 0 0.0 3.0 0.00 0.79 0.00 70 1018.1
20260508145025 64 0 0.0 1.0 0.00 0.79 0.00 71 1018.1
20260508144538 64 0 0.0 3.0 0.00 0.79 0.00 72 1018.1
20260508144021 63 0 0.0 3.0 0.00 0.79 0.00 77 1018.1
20260508143522 63 0 0.0 4.0 0.00 0.79 0.00 73 1018.1
20260508143046 62 0 0.0 4.0 0.00 0.79 0.00 76 1018.1
20260508142524 62 0 0.0 4.0 0.00 0.79 0.00 79 1018.1
20260508142022 61 0 0.0 4.0 0.00 0.79 0.00 77 1018.1
20260508141547 61 0 0.0 3.0 0.00 0.79 0.00 81 1018.1
20260508141022 60 0 0.0 4.0 0.00 0.79 0.00 81 1018.1
20260508140522 60 0 0.0 4.0 0.00 0.79 0.00 81 1018.0
20260508140038 59 0 0.0 4.0 0.00 0.79 0.00 81 1017.9
20260508135522 60 0 0.0 2.0 0.00 1.00 0.00 83 1018.0
20260508135022 59 0 0.0 2.0 0.00 1.00 0.00 86 1017.9
20260508134536 59 0 0.0 0.0 0.00 1.00 0.00 87 1017.9
20260508134022 59 0 0.0 3.0 0.00 1.00 0.00 88 1017.9
20260508133539 59 0 0.0 3.0 0.00 1.00 0.00 88 1017.8
20260508133047 58 0 0.0 1.0 0.00 1.00 0.00 88 1018.0
20260508132523 58 0 0.0 0.0 0.00 1.00 0.00 90 1018.0
20260508132020 58 0 0.0 0.0 0.00 1.00 0.00 91 1017.9
20260508131539 57 0 0.0 0.0 0.00 1.00 0.00 91 1017.8
20260508131023 57 0 0.0 1.0 0.00 1.00 0.00 93 1018.0
20260508130523 56 0 0.0 1.0 0.00 1.00 0.00 93 1017.7
20260508130034 56 0 0.0 0.0 0.00 1.00 0.00 94 1017.7
20260508125527 56 0 0.0 5.0 0.00 1.00 0.00 95 1017.6
20260508125022 56 0 0.0 5.0 0.00 1.00 0.00 96 1017.6
20260508124534 55 0 0.0 0.0 0.00 1.00 0.00 97 1017.6
20260508124025 55 0 0.0 0.0 0.00 1.00 0.00 98 1017.6
20260508123520 55 0 0.0 0.0 0.00 1.00 0.00 98 1017.3
20260508123035 55 0 0.0 0.0 0.00 1.00 0.00 99 1017.3
20260508122523 54 0 0.0 0.0 0.00 1.00 0.00 99 1017.4
20260508122020 54 0 0.0 0.0 0.00 1.00 0.00 99 1017.4
20260508121554 54 0 0.0 0.0 0.00 1.00 0.00 99 1017.2
20260508121021 53 0 0.0 2.0 0.00 1.00 0.00 99 1017.2
20260508120523 53 0 0.0 2.0 0.00 1.00 0.00 99 1017.1
20260508120039 53 0 0.0 0.0 0.00 1.00 0.00 99 1017.0
20260508115523 54 0 0.0 0.0 0.00 1.07 0.00 99 1016.9
20260508115023 53 0 0.0 0.0 0.00 1.07 0.00 99 1016.8
20260508114537 53 0 0.0 0.0 0.00 1.07 0.00 99 1016.7
20260508114023 53 0 0.0 0.0 0.00 1.07 0.00 99 1016.6
20260508113528 53 0 0.0 0.0 0.00 1.07 0.00 99 1016.4
20260508113035 53 0 0.0 0.0 0.00 1.07 0.00 99 1016.4
20260508112522 53 0 0.0 0.0 0.00 1.07 0.00 99 1016.3
20260508112023 53 0 0.0 0.0 0.00 1.07 0.00 99 1016.3
20260508111535 53 0 0.0 0.0 0.00 1.07 0.00 99 1016.1
20260508111022 53 0 0.0 0.0 0.00 1.07 0.00 99 1016.1
20260508110522 53 0 0.0 0.0 0.00 1.07 0.00 99 1016.0
20260508110045 53 0 0.0 0.0 0.00 1.07 0.00 99 1015.9
20260508105523 53 0 0.0 0.0 0.00 1.15 0.00 99 1015.8
20260508105023 53 0 0.0 0.0 0.00 1.15 0.00 99 1015.7
20260508104533 53 0 0.0 0.0 0.00 1.15 0.00 99 1015.6
20260508104020 53 0 0.0 0.0 0.00 1.15 0.00 99 1015.6
20260508103523 53 0 0.0 0.0 0.00 1.15 0.00 99 1015.7
20260508103033 53 0 0.0 0.0 0.00 1.15 0.00 99 1015.5
20260508102523 54 0 0.0 0.0 0.00 1.15 0.00 99 1015.5
20260508102022 54 0 0.0 0.0 0.00 1.15 0.00 99 1015.4
20260508101538 54 0 0.0 0.0 0.00 1.15 0.00 99 1015.5
20260508101025 54 0 0.0 0.0 0.00 1.15 0.00 99 1015.4
20260508100523 54 0 0.0 0.0 0.00 1.15 0.00 99 1015.4
20260508100036 54 0 0.0 0.0 0.00 1.15 0.00 99 1015.4
20260508095525 54 0 0.0 0.0 0.00 1.25 0.00 99 1015.2
20260508095021 54 0 0.0 0.0 0.00 1.25 0.00 99 1015.2
20260508094537 53 0 0.0 0.0 0.00 1.25 0.00 98 1015.3
20260508094021 53 0 0.0 0.0 0.00 1.25 0.00 98 1015.2
20260508093522 53 0 0.0 0.0 0.00 1.25 0.00 98 1015.1
20260508093036 53 0 0.0 0.0 0.00 1.25 0.00 98 1015.1
20260508092522 53 0 0.0 0.0 0.00 1.25 0.00 98 1015.0
20260508092023 53 0 0.0 0.0 0.00 1.25 0.00 98 1014.9
20260508091540 53 0 0.0 0.0 0.00 1.25 0.00 98 1014.8
20260508091020 53 0 0.0 0.0 0.00 1.25 0.00 98 1014.8
20260508090523 53 0 0.0 0.0 0.00 1.25 0.00 98 1014.7
20260508090036 53 0 0.0 0.0 0.00 1.25 0.00 98 1014.7
20260508085524 53 0 0.0 0.0 0.00 1.29 0.00 98 1014.6
20260508085024 53 0 0.0 0.0 0.00 1.29 0.00 98 1014.6
20260508084535 53 0 0.0 0.0 0.00 1.29 0.00 98 1014.3
20260508084020 53 0 0.0 0.0 0.00 1.29 0.00 98 1014.3
20260508083521 53 0 0.0 0.0 0.00 1.29 0.00 98 1014.2
20260508083114 53 0 0.0 0.0 0.00 1.29 0.00 98 1014.3
20260508082523 54 0 0.0 0.0 0.00 1.29 0.00 98 1014.1
20260508082021 54 0 0.0 0.0 0.00 1.29 0.00 98 1014.0
20260508081541 54 0 0.0 0.0 0.00 1.29 0.00 98 1013.9
20260508081022 54 0 0.0 0.0 0.00 1.29 0.00 98 1014.0
20260508080523 54 0 0.0 0.0 0.00 1.29 0.00 98 1014.0
20260508080036 54 0 0.0 0.0 0.00 1.29 0.00 98 1013.9
20260508075523 54 0 0.0 0.0 0.00 1.29 0.00 98 1013.8
20260508075021 54 0 0.0 0.0 0.00 1.29 0.00 98 1013.8
20260508074535 55 0 0.0 0.0 0.00 1.29 0.00 98 1013.7
20260508074023 55 0 0.0 0.0 0.00 1.29 0.00 98 1013.9
20260508073521 55 0 0.0 0.0 0.00 1.29 0.00 97 1013.8
20260508073040 55 0 0.0 0.0 0.00 1.29 0.00 98 1013.7
20260508072526 55 0 0.0 0.0 0.00 1.29 0.00 98 1013.6
20260508072023 55 0 0.0 0.0 0.00 1.29 0.00 98 1013.6
20260508071543 56 0 0.0 0.0 0.00 1.29 0.00 98 1013.6
20260508071020 56 0 0.0 0.0 0.00 1.29 0.00 98 1013.5
20260508070525 56 0 0.0 0.0 0.00 1.29 0.00 98 1013.5
20260508070039 56 0 0.0 0.0 0.00 1.29 0.00 97 1013.6
20260508065525 56 0 0.0 0.0 0.00 1.29 0.00 97 1013.7
20260508065021 56 0 0.0 0.0 0.00 1.29 0.00 98 1013.6
20260508064546 56 0 0.0 0.0 0.00 1.29 0.00 98 1013.7
20260508064021 56 0 0.0 0.0 0.00 1.29 0.00 98 1013.6
20260508063521 56 0 0.0 0.0 0.00 1.29 0.00 98 1013.7
20260508063039 56 0 0.0 0.0 0.00 1.29 0.00 98 1013.8
20260508062523 56 0 0.0 0.0 0.00 1.29 0.00 98 1013.7
20260508062023 56 0 0.0 0.0 0.00 1.29 0.00 98 1013.6
20260508061543 56 0 0.0 0.0 0.00 1.29 0.00 98 1013.6
20260508061023 56 0 0.0 0.0 0.00 1.29 0.00 98 1013.8
20260508060521 56 0 0.0 0.0 0.00 1.29 0.00 98 1013.8
20260508060037 56 0 0.0 0.0 0.00 1.29 0.00 97 1013.7
20260508055523 56 0 0.0 0.0 0.00 1.29 0.00 97 1013.7
20260508055023 56 0 0.0 0.0 0.00 1.29 0.00 97 1013.8
20260508054533 56 0 0.0 0.0 0.00 1.29 0.00 97 1013.8
20260508054023 56 0 0.0 0.0 0.00 1.29 0.00 97 1013.7
20260508053521 56 0 0.0 0.0 0.00 1.29 0.00 97 1013.7
20260508053035 56 0 0.0 0.0 0.00 1.29 0.00 97 1014.0
20260508052525 56 0 0.0 0.0 0.00 1.29 0.00 97 1013.9
20260508052023 56 0 0.0 0.0 0.00 1.29 0.00 96 1013.8
20260508051534 56 0 0.0 0.0 0.00 1.29 0.00 97 1013.7
20260508051023 56 0 0.0 0.0 0.00 1.29 0.00 97 1013.7
20260508050522 56 0 0.0 0.0 0.00 1.29 0.00 96 1013.7
20260508050044 56 0 0.0 0.0 0.00 1.29 0.00 96 1013.6
20260508045520 56 0 0.0 0.0 0.00 1.29 0.00 96 1013.7
20260508045021 56 0 0.0 0.0 0.00 1.29 0.00 96 1013.6
20260508044536 56 0 0.0 0.0 0.00 1.29 0.00 96 1013.5
20260508044022 56 0 0.0 0.0 0.00 1.29 0.00 96 1013.4
20260508043526 57 0 0.0 0.0 0.00 1.29 0.00 96 1013.5
20260508043036 57 0 0.0 0.0 0.00 1.29 0.00 96 1013.4
20260508042525 57 0 0.0 0.0 0.00 1.29 0.00 96 1013.3
20260508042024 57 0 0.0 0.0 0.00 1.29 0.00 96 1013.4
20260508041535 57 0 0.0 0.0 0.00 1.29 0.00 95 1013.4
20260508041020 57 0 0.0 0.0 0.00 1.29 0.00 95 1013.3
20260508040521 57 0 0.0 0.0 0.00 1.29 0.00 95 1013.4
20260508040039 57 0 0.0 0.0 0.00 1.29 0.00 95 1013.4
20260508035523 57 0 0.0 0.0 0.00 1.29 1.29 95 1013.4
20260508035020 57 0 0.0 0.0 0.00 1.29 1.29 95 1013.4
20260508034536 57 0 0.0 0.0 0.00 1.29 1.29 95 1013.5
20260508034020 57 0 0.0 0.0 0.00 1.29 1.29 95 1013.4
20260508033521 57 0 0.0 2.0 0.00 1.29 1.29 95 1013.5
20260508033034 57 0 0.0 2.0 0.00 1.29 1.29 95 1013.3
20260508032523 57 0 0.0 2.0 0.00 1.29 1.29 95 1013.2
20260508032022 57 0 0.0 0.0 0.00 1.29 1.29 95 1013.2
20260508031533 57 0 0.0 2.0 0.00 1.29 1.29 95 1013.1
20260508031023 57 0 0.0 2.0 0.00 1.29 1.29 95 1012.9
20260508030520 57 0 0.0 2.0 0.00 1.29 1.29 94 1013.0
20260508030035 57 0 0.0 1.0 0.00 1.29 1.29 94 1012.8
20260508025524 57 0 0.0 0.0 0.00 1.29 1.29 94 1012.9
20260508025025 57 0 0.0 2.0 0.00 1.29 1.29 94 1013.0
20260508024548 57 0 0.0 2.0 0.00 1.29 1.29 94 1012.9
20260508024023 58 0 0.0 2.0 0.00 1.29 1.29 94 1012.7
20260508023523 58 0 0.0 2.0 0.00 1.29 1.29 94 1012.4
20260508023037 58 0 0.0 2.0 0.00 1.29 1.29 93 1012.6
20260508022520 58 0 0.0 2.0 0.00 1.29 1.29 93 1012.3
20260508022022 59 0 0.0 0.0 0.00 1.29 1.29 93 1012.3
20260508021535 59 0 0.0 0.0 0.00 1.29 1.29 93 1012.3
20260508021025 59 0 0.0 0.0 0.00 1.29 1.29 93 1012.1
20260508020519 59 0 0.0 2.0 0.00 1.29 1.29 92 1012.2
20260508020044 60 0 0.0 4.0 0.00 1.29 1.29 92 1012.1
20260508015522 60 0 0.0 4.0 0.00 1.29 1.29 91 1012.2
20260508015023 60 0 1.0 4.0 0.00 1.29 1.29 91 1012.3
20260508014540 60 234 0.0 8.0 0.00 1.29 1.29 91 1012.2
20260508014023 60 0 1.0 8.0 0.00 1.29 1.29 90 1012.4
20260508013526 60 0 0.0 5.0 0.00 1.29 1.29 91 1011.8
20260508013039 60 0 0.0 6.0 0.00 1.29 1.29 91 1011.4
20260508012525 60 158 1.0 6.0 0.00 1.29 1.29 92 1010.9
20260508012024 61 245 0.0 1.0 0.00 1.29 1.29 93 1011.0
20260508011547 61 0 0.0 2.0 0.00 1.29 1.29 93 1010.6
20260508011023 61 0 0.0 3.0 0.00 1.29 1.29 93 1010.6
20260508010524 61 0 0.0 5.0 0.00 1.29 1.29 93 1010.6
20260508010034 61 0 1.0 13.0 0.00 1.29 1.29 92 1010.8
20260508005532 61 144 3.0 13.0 0.00 1.29 1.29 92 1010.7
20260508005023 62 0 0.0 6.0 0.00 1.29 1.29 93 1010.6
20260508004550 62 0 1.0 8.0 0.00 1.29 1.29 93 1009.3
20260508004021 63 205 1.0 10.0 0.00 1.29 1.29 92 1009.7
20260508003523 63 0 1.0 10.0 0.00 1.29 1.29 92 1009.6
20260508003042 63 0 0.0 4.0 0.00 1.29 1.29 92 1009.3
20260508002522 64 0 0.0 4.0 0.00 1.29 1.29 92 1009.1
20260508002023 64 0 0.0 4.0 0.00 1.29 1.29 92 1008.9
20260508001541 65 0 0.0 2.0 0.00 1.29 1.29 90 1008.9
20260508001023 66 0 0.0 2.0 0.00 1.29 1.29 90 1008.7
20260508000528 66 0 0.0 3.0 0.00 1.29 1.29 90 1008.7
20260508000037 67 0 0.0 6.0 0.00 1.29 1.29 88 1008.7
20260507235523 68 0 0.0 7.0 0.00 1.29 1.29 87 1008.1
20260507235027 70 182 1.0 7.0 0.00 1.29 1.29 86 1008.0
20260507234533 72 0 0.0 3.0 0.00 1.29 1.29 88 1007.9
20260507234022 73 0 0.0 0.0 0.00 1.29 1.29 92 1007.6
20260507233526 74 0 0.0 0.0 0.00 1.29 1.29 91 1007.4
20260507233035 75 0 0.0 0.0 0.00 1.29 1.29 90 1007.4
20260507232522 75 0 0.0 0.0 0.00 1.29 1.29 89 1007.2
20260507232023 76 0 0.0 0.0 0.00 1.29 1.29 87 1007.0
20260507231539 76 0 0.0 0.0 0.00 1.29 1.29 86 1006.9
20260507231023 76 0 0.0 0.0 0.00 1.29 1.29 86 1006.9
20260507230527 76 0 0.0 0.0 0.00 1.29 1.29 86 1007.0
20260507230040 76 0 0.0 3.0 0.00 1.29 1.29 86 1007.0
20260507225523 77 0 0.0 3.0 0.00 1.29 1.29 84 1007.0
20260507225023 77 0 0.0 4.0 0.00 1.29 1.29 84 1006.9
20260507224542 77 0 0.0 4.0 0.00 1.29 1.29 83 1006.9
20260507224023 77 0 0.0 4.0 0.00 1.29 1.29 84 1006.6
20260507223526 77 0 0.0 3.0 0.00 1.29 1.29 83 1006.6
20260507223035 77 0 0.0 3.0 0.00 1.29 1.29 83 1006.8
20260507222522 77 0 0.0 2.0 0.00 1.29 1.29 84 1006.7
20260507222021 77 0 0.0 1.0 0.00 1.29 1.29 85 1006.8
20260507221541 77 0 0.0 1.0 0.00 1.29 1.29 85 1006.7
20260507221022 77 0 0.0 1.0 0.00 1.29 1.29 84 1006.5
20260507220521 77 0 0.0 1.0 0.00 1.29 1.29 84 1006.7
20260507220034 77 0 0.0 1.0 0.00 1.29 1.29 82 1006.7
20260507215525 78 0 0.0 3.0 0.00 1.29 1.29 83 1006.7
20260507215024 78 0 0.0 4.0 0.00 1.29 1.29 81 1006.8
20260507214537 78 0 0.0 4.0 0.00 1.29 1.29 81 1007.0
20260507214023 78 0 0.0 4.0 0.00 1.29 1.29 82 1007.2
20260507213523 78 0 0.0 1.0 0.00 1.29 1.29 82 1007.1
20260507213038 78 0 0.0 4.0 0.00 1.29 1.29 82 1007.1
20260507212521 78 0 0.0 4.0 0.00 1.29 1.29 83 1007.1
20260507212024 77 249 0.0 4.0 0.00 1.29 1.29 83 1007.0
20260507211537 77 0 0.0 5.0 0.00 1.29 1.29 83 1006.9
20260507211022 78 0 0.0 5.0 0.00 1.29 1.29 82 1006.9
20260507210526 78 0 0.0 6.0 0.00 1.29 1.29 83 1007.0
20260507210036 78 0 0.0 6.0 0.00 1.29 1.29 84 1007.2
20260507205523 77 0 1.0 6.0 0.00 1.29 1.29 85 1007.1
20260507205023 76 0 0.0 5.0 0.00 1.29 1.29 89 1007.1
20260507204538 74 0 0.0 1.0 0.00 1.29 1.29 91 1007.0
20260507204023 75 0 0.0 1.0 0.00 1.29 1.29 89 1006.9
20260507203519 75 0 0.0 1.0 0.00 1.29 1.29 89 1006.9
20260507203039 75 0 0.0 3.0 0.00 1.29 1.29 88 1006.9
20260507202522 76 0 0.0 3.0 0.00 1.29 1.29 87 1006.8
20260507202022 77 0 0.0 1.0 0.00 1.29 1.29 88 1006.8
20260507201541 77 0 0.0 4.0 0.00 1.29 1.29 86 1006.9
20260507201023 77 0 0.0 4.0 0.00 1.29 1.29 87 1006.9
20260507200523 77 0 0.0 4.0 0.00 1.29 1.29 88 1007.0
20260507200038 75 0 1.0 4.0 0.00 1.29 1.29 90 1007.1
20260507195524 75 0 0.0 4.0 0.00 1.29 1.29 92 1007.3
20260507195023 75 0 0.0 4.0 0.00 1.29 1.29 93 1007.3
20260507194533 75 0 0.0 4.0 0.00 1.29 1.29 92 1007.3
20260507194023 75 223 0.0 2.0 0.00 1.29 1.29 92 1007.2
20260507193522 75 0 0.0 4.0 0.00 1.29 1.29 92 1007.2
20260507193039 75 0 0.0 4.0 0.00 1.29 1.29 91 1007.1
20260507192522 75 223 0.0 2.0 0.00 1.29 1.29 92 1007.2
20260507192024 74 0 0.0 3.0 0.00 1.29 1.29 90 1007.2
20260507191539 74 0 0.0 3.0 0.00 1.29 1.29 91 1007.2
20260507191022 75 0 0.0 1.0 0.00 1.29 1.29 92 1007.2
20260507190522 74 0 0.0 1.0 0.00 1.29 1.29 93 1006.9
20260507190041 74 0 0.0 3.0 0.00 1.29 1.29 93 1006.9
20260507185522 73 0 0.0 4.0 0.00 1.29 1.29 93 1007.1
20260507185024 73 210 0.0 4.0 0.00 1.29 1.29 94 1007.4
20260507184539 73 0 0.0 4.0 0.00 1.29 1.29 94 1007.8
20260507184023 73 0 0.0 3.0 0.00 1.29 1.29 96 1007.9